Location: Newark
(40.3500°N, 15.2333°E)
Time: 11:41:28
(UTC+00:00)

NOAA 15 - Pass Details

Date: 29 February 2020
Orbit: 797 x 813 km, 98.7° (Epoch: 05 April)

Event Time Altitude Azimuth Distance (km) Brightness Sun altitude
Rises 17:55:07 0° 177° (S) 3,320 7.8 -13.2°
Reaches altitude 10° 17:57:30 10° 182° (S) 2,393 7.1 -13.7°
Maximum altitude 18:02:41 54° 259° (W) 981 5.4 -14.6°
Drops below altitude 10° 18:07:54 10° 337° (NNW) 2,409 7.4 -15.6°
Sets 18:10:19 0° 342° (NNW) 3,344 8.1 -16.1°
